Location: Écuvilly
(49.6505°N, 2.9206°E)
Time: 13:51:44
(UTC+00:00)

ISS - Visible Passes

Search period start: 14 February 2026 00:00
Search period end: 24 February 2026 00:00
Orbit: 413 x 428 km, 51.6° (Epoch: 13 February)

Date Brightness Start Highest point End Pass type
(mag) Time Alt. Az. Time Alt. Az. Time Alt. Az.
14 Feb -1.3 05:21:47 10° S 05:24:16 19° SE 05:26:44 10° E visible
15 Feb -1.0 04:36:22 12° SSE 04:37:23 13° SE 04:39:03 10° ESE visible
15 Feb -3.2 06:10:23 10° SW 06:13:40 58° SSE 06:16:59 10° ENE visible
16 Feb -2.7 05:24:33 18° SSW 05:26:40 41° SSE 05:29:50 10° E visible
17 Feb -2.2 04:39:35 29° SSE 04:39:40 29° SE 04:42:37 10° E visible
17 Feb -3.8 06:12:56 10° WSW 06:16:17 81° NNW 06:19:38 10° ENE visible
18 Feb -0.7 03:54:30 14° ESE 03:54:30 14° ESE 03:55:14 10° E visible
18 Feb -3.8 05:27:30 27° WSW 05:29:10 80° SSE 05:32:32 10° ENE visible
19 Feb -3.3 04:42:19 57° SE 04:42:19 57° SE 04:45:22 10° ENE visible
19 Feb -3.6 06:15:37 10° W 06:18:57 61° N 06:22:15 10° ENE visible
20 Feb -1.0 03:57:03 19° E 03:57:03 19° E 03:58:11 10° ENE visible
20 Feb -3.7 05:30:02 26° W 05:31:45 68° N 05:35:05 10° ENE visible
21 Feb -3.8 04:44:43 76° NNE 04:44:43 76° NNE 04:47:55 10° ENE visible
22 Feb -1.3 03:59:22 23° ENE 03:59:22 23° ENE 04:00:44 10° ENE visible
22 Feb -3.5 05:32:20 22° WNW 05:34:20 59° N 05:37:39 10° E visible
23 Feb -3.6 04:46:57 60° NNW 04:47:06 61° N 04:50:25 10° ENE visible
